{"data":{"norad_id":53035,"epoch":"2026-05-25T02:59:53.335104Z","epoch_age_seconds":73041,"freshness":"FRESH","line1":"1 53035U 22076BB  26145.12492286 -.00001224  00000+0 -58831-4 0  9994","line2":"2 53035  53.2137  90.9885 0001808  89.5148 270.6051 15.08842403214665","mean_motion":15.08842403,"eccentricity":0.0001808,"inclination_deg":53.2137,"raan_deg":90.9885,"arg_perigee_deg":89.5148,"mean_anomaly_deg":270.6051,"bstar":-5.8831e-5,"rev_number":21466,"period_min":95.437402682804,"perigee_km":538.48529251784,"apogee_km":540.98679541054,"semimajor_km":6917.8730439642,"source":"CELESTRAK","updated_at":"2026-05-25T13:38:17.284374Z"}}